Location: Ferchesar
(52.6477°N, 12.4298°E)
Time: 17:36:57
(UTC+01:00)

Vanguard 1 - Pass Details

Date: 08 December 2021
Orbit: 652 x 3830 km, 34.2° (Epoch: 22 January)

Event Time Altitude Azimuth Distance (km) Brightness Sun altitude
Rises 22:32:32 0° 220° (SW) 6,672 14.2 -55.6°
Enters shadow 22:35:39 - 215° (SW) 6,209 14.0 -55.9°
Reaches altitude 10° 22:37:02 10° 213° (SSW) 6,021 - -56.0°
Maximum altitude 22:54:35 37° 154° (SSE) 4,927 - -57.5°
Drops below altitude 10° 23:14:01 10° 98° (E) 6,664 - -58.8°
Exits shadow 23:16:26 - 95° (E) 7,006 14.2 -58.9°
Sets 23:19:17 0° 91° (E) 7,429 14.4 -59.0°
